Regional Weather Roundup
Issued by NWS

Home | Current Version | Previous Version | Text Only | Print | Product List | Glossary On
Versions: 1 2 3 4 5 6 7 8 9 10 11 12 13 14 15 16 17 18 19 20 21 22 23 24 25 26 27 28
000
ASUS45 KTFX 310010
RWRMT
MONTANA REGIONAL WEATHER ROUNDUP
NATIONAL WEATHER SERVICE GREAT FALLS MT
600 PM MDT MON MAY 30 2016

NOTE: "FAIR" INDICATES FEW OR NO CLOUDS BELOW 12000 FEET WITH NO
SIGNIFICANT WEATHER AND/OR OBSTRUCTIONS TO VISIBILITY.

MTZ001>007-043-310100-
WEST OF THE DIVIDE

CITY           SKY/WX    TMP DP  RH WIND       PRES   REMARKS
KALISPELL      MOSUNNY   65  38  36 VRB3      30.12F
MISSOULA       MOSUNNY   67  32  27 N8        30.12S
BUTTE          SUNNY     60  22  23 N12G24    30.15S
MULLAN PASS    SUNNY     54  23  30 MISG      30.23S
ANACONDA         N/A     63  21  20 W10G16    30.13S
DEER LODGE       N/A     63  19  19 NW18G26   30.15S
EUREKA           N/A     55  39  54 NE17G25   30.16R
HAMILTON         N/A     68  25  19 N7        30.11F
LIBBY            N/A     70  32  24 W5        30.14S
$$

MTZ008-052>055-310100-
SOUTHWEST MONTANA

CITY           SKY/WX    TMP DP  RH WIND       PRES   REMARKS
BOZEMAN        SUNNY     64  32  30 N15       30.09S
DILLON         SUNNY     66  18  15 E5        30.10S
W YELLOWSTONE  CLOUDY    57  21  24 NW10G18   30.14S
ENNIS          PTSUNNY   61  23  23 N13       30.16S
$$

MTZ009-010-012-014-046-048-049-054-310100-
EAST SLOPES AND CENTRAL MONTANA

CITY           SKY/WX    TMP DP  RH WIND       PRES   REMARKS
CUT BANK       PTSUNNY   57  34  41 NW22G35   30.15R
GREAT FALLS    CLOUDY    58  34  40 NW13      30.14R
MALMSTROM AFB  PTSUNNY   57  35  44 N13G23    30.13R
HELENA         SUNNY     63  36  36 N12       30.11R
CHOTEAU          N/A     55  39  54 N21G26    30.16R
$$

MTZ011-013-016-021-045-047-050-051-310100-
NORTH CENTRAL MONTANA

CITY           SKY/WX    TMP DP  RH WIND       PRES   REMARKS
HAVRE          CLOUDY    48  42  80 NW23G31   30.07S
LEWISTOWN      CLOUDY    54  38  54 NW12G26   30.11S
N BAR RANCH      N/A     54  36  50 NW28G40   30.07R
CHINOOK          N/A     50  41  71 W18G26    30.04S
$$

MTZ017>020-022>027-061-062-310100-
NORTHEAST MONTANA

CITY           SKY/WX    TMP DP  RH WIND       PRES   REMARKS
GLASGOW        CLOUDY    57  42  57 W23G35    29.96R
JORDAN           N/A     58  42  55 NW20G25   30.00S
SIDNEY         CLOUDY    55  54  94 N14       29.91F
WOLF POINT     CLOUDY    58  50  75 NW6       29.94F
POPLAR           N/A     55  52  88 NW9       29.94R
$$

MTZ028>42-056>058-310100-
SOUTHCENTRAL AND SOUTHEAST MONTANA

CITY           SKY/WX    TMP DP  RH WIND       PRES   REMARKS
BAKER          PTSUNNY   55  47  74 NW15G30   29.96S
BILLINGS       PTSUNNY   62  38  40 NE13      30.07R
LIVINGSTON     SUNNY     62  35  36 N18       30.08S
MILES CITY     CLOUDY    61  40  45 NW23G31   29.99R
FORSYTH          N/A     61  36  39 W20G33    30.03R
$$

REGIONAL REPORTS...DAKOTAS

CITY           SKY/WX    TMP DP  RH WIND       PRES   REMARKS
WILLISTON      CLOUDY    56  52  86 N9        29.91R
MINOT          LGT RAIN  61  55  81 W6        29.85S
DICKINSON      CLOUDY    59  53  80 N6        29.87R
BEACH            N/A     54  54 100 NW20      29.96R
CROSBY         LGT RAIN  55  55 100 NW14      29.93S
WATFORD CITY   LGT RAIN  54  54 100 N9        29.91R
BISMARCK       TSTM      61  58  90 N10G18    29.81R
GRAND FORKS    CLOUDY    64  55  72 NE16      29.82F
FARGO          CLOUDY    82  48  30 SE12G22   29.76S
BUFFALO SD       N/A     59  45  59 NW33G45   29.86R
RAPID CITY     CLOUDY    69  46  43 N26G36    29.87R
$$

REGIONAL REPORTS...WYOMING/IDAHO/WASHINGTON

CITY           SKY/WX    TMP DP  RH WIND       PRES   REMARKS
GILLETTE         N/A     52  47  83 NW10      30.05R
SHERIDAN       CLOUDY    52  46  80 NW16      30.09S
BUFFALO WY     CLOUDY    51  44  77 N20G28    30.10R
CODY           CLOUDY    54  39  58 N17       30.09R
YELLOWSTONE LA   N/A     55  18  23 W12G25    30.19R
IDAHO FALLS    CLOUDY    69  31  24 S21G31    30.05S
SALMON         SUNNY     70  28  21 N12       30.06F
BOISE          SUNNY     75  23  14 NW17      30.07F
SPOKANE        MOSUNNY   71  23  16 W13       30.17S
$$

REGIONAL REPORTS...ALBERTA

CITY           SKY/WX    TMP DP  RH WIND       PRES   REMARKS
EDMONTON       MOSUNNY   52  43  71 NW9       30.18S
CALGARY        MOSUNNY   59  34  38 N24G31    30.15S
LETHBRIDGE     MOSUNNY   59  39  47 NW15G26   30.13S
MEDICINE HAT   CLOUDY    50  45  81 NW18G32   30.04R
$$

REGIONAL REPORTS...SASKATCHEWAN

CITY           SKY/WX    TMP DP  RH WIND       PRES   REMARKS
SWIFT CURRENT  LGT RAIN  52  50  93 W8        29.93S
REGINA         LGT RAIN  59  54  82 NE8       29.91R
SASKATOON      CLOUDY    63  46  55 E16G22    29.98R
$$




USA.gov is the U.S. government's official web portal to all federal, state and local government web resources and services.